Time,TemperatureF,DewpointF,PressureIn,WindDirection,WindDirectionDegrees,WindSpeedMPH,WindSpeedGustMPH,Humidity,HourlyPrecipIn,Conditions,Clouds,dailyrainin,SoftwareType,DateUTC
2013-03-18 00:01:00,43.5,42.4,29.72,SSE,150,1.0,4.0,96,0.00,,,0.64,Wunderground v.1.15,2013-03-18 05:01:00,
2013-03-18 00:07:00,43.6,42.5,29.71,SE,136,2.0,6.0,96,0.00,,,0.00,Wunderground v.1.15,2013-03-18 05:07:00,
2013-03-18 00:12:00,43.7,42.6,29.71,SE,124,2.0,3.0,96,0.00,,,0.00,Wunderground v.1.15,2013-03-18 05:12:00,
2013-03-18 00:17:00,43.8,42.7,29.71,ESE,104,1.0,5.0,96,0.00,,,0.00,Wunderground v.1.15,2013-03-18 05:17:00,
2013-03-18 00:22:00,43.9,42.8,29.71,ENE,61,3.0,3.0,96,0.00,,,0.00,Wunderground v.1.15,2013-03-18 05:22:00,
2013-03-18 00:28:00,43.9,42.8,29.72,NE,44,4.0,5.0,96,0.00,,,0.00,Wunderground v.1.15,2013-03-18 05:28:00,
2013-03-18 00:34:00,44.0,42.9,29.74,NNW,327,3.0,4.0,96,0.00,,,0.00,Wunderground v.1.15,2013-03-18 05:34:00,
2013-03-18 00:40:00,44.0,42.9,29.74,NE,46,4.0,4.0,96,0.00,,,0.00,Wunderground v.1.15,2013-03-18 05:40:00,
2013-03-18 00:45:00,43.9,42.8,29.73,SE,124,2.0,10.0,96,0.00,,,0.00,Wunderground v.1.15,2013-03-18 05:45:00,
2013-03-18 00:52:00,43.9,42.8,29.72,ENE,61,6.0,6.0,96,0.00,,,0.00,Wunderground v.1.15,2013-03-18 05:52:00,
2013-03-18 00:58:00,43.8,42.7,29.73,NE,56,10.0,10.0,96,0.00,,,0.00,Wunderground v.1.15,2013-03-18 05:58:00,
2013-03-18 01:03:00,43.7,42.6,29.72,ENE,57,4.0,5.0,96,0.00,,,0.00,Wunderground v.1.15,2013-03-18 06:03:00,
2013-03-18 01:08:00,43.7,42.6,29.72,NE,52,3.0,8.0,96,0.00,,,0.00,Wunderground v.1.15,2013-03-18 06:08:00,
2013-03-18 01:14:00,43.7,42.6,29.72,NE,50,5.0,5.0,96,0.00,,,0.01,Wunderground v.1.15,2013-03-18 06:14:00,
2013-03-18 01:19:00,43.6,42.5,29.72,NNW,345,2.0,4.0,96,0.00,,,0.01,Wunderground v.1.15,2013-03-18 06:19:00,
2013-03-18 01:25:00,43.6,42.5,29.71,East,81,5.0,7.0,96,0.00,,,0.01,Wunderground v.1.15,2013-03-18 06:25:00,
2013-03-18 01:30:00,43.5,42.4,29.73,NE,49,7.0,7.0,96,0.00,,,0.01,Wunderground v.1.15,2013-03-18 06:30:00,
2013-03-18 01:36:00,43.5,42.4,29.74,NNE,20,3.0,10.0,96,0.00,,,0.01,Wunderground v.1.15,2013-03-18 06:36:00,
2013-03-18 01:42:00,43.3,42.2,29.74,North,11,5.0,15.0,96,0.00,,,0.02,Wunderground v.1.15,2013-03-18 06:42:00,
2013-03-18 01:48:00,42.9,41.6,29.76,NW,321,8.0,15.0,95,0.43,,,0.05,Wunderground v.1.15,2013-03-18 06:48:00,
2013-03-18 01:53:00,42.4,41.1,29.79,NW,307,10.0,17.0,95,0.08,,,0.05,Wunderground v.1.15,2013-03-18 06:53:00,
2013-03-18 01:59:00,42.0,40.4,29.75,NE,56,15.0,17.0,94,0.39,,,0.08,Wunderground v.1.15,2013-03-18 06:59:00,
2013-03-18 02:04:00,41.6,40.0,29.78,ENE,63,6.0,19.0,94,0.27,,,0.11,Wunderground v.1.15,2013-03-18 07:04:00,
2013-03-18 02:09:00,41.2,39.6,29.73,NE,49,3.0,20.0,94,0.27,,,0.15,Wunderground v.1.15,2013-03-18 07:09:00,
2013-03-18 02:14:00,40.9,39.6,29.73,NE,43,3.0,11.0,95,0.10,,,0.16,Wunderground v.1.15,2013-03-18 07:14:00,
2013-03-18 02:19:00,40.8,39.5,29.72,ESE,110,4.0,11.0,95,0.09,,,0.16,Wunderground v.1.15,2013-03-18 07:19:00,
2013-03-18 02:24:00,40.7,39.4,29.73,ESE,108,12.0,12.0,95,0.05,,,0.16,Wunderground v.1.15,2013-03-18 07:24:00,
2013-03-18 02:29:00,40.7,39.4,29.74,NE,51,3.0,12.0,95,0.04,,,0.16,Wunderground v.1.15,2013-03-18 07:29:00,
2013-03-18 02:34:00,40.7,39.4,29.73,East,94,8.0,13.0,95,0.00,,,0.16,Wunderground v.1.15,2013-03-18 07:34:00,
2013-03-18 02:39:00,40.7,39.4,29.73,East,85,3.0,13.0,95,0.00,,,0.16,Wunderground v.1.15,2013-03-18 07:39:00,
2013-03-18 02:44:00,40.7,39.4,29.73,ENE,65,8.0,13.0,95,0.00,,,0.16,Wunderground v.1.15,2013-03-18 07:44:00,
2013-03-18 02:49:00,40.7,39.4,29.74,NE,47,10.0,15.0,95,0.00,,,0.16,Wunderground v.1.15,2013-03-18 07:49:00,
2013-03-18 02:54:00,40.6,39.3,29.73,NE,37,6.0,16.0,95,0.00,,,0.16,Wunderground v.1.15,2013-03-18 07:54:00,
2013-03-18 02:59:00,40.3,39.0,29.73,NE,36,8.0,16.0,95,0.62,,,0.20,Wunderground v.1.15,2013-03-18 07:59:00,
2013-03-18 03:04:00,40.2,38.9,29.76,ENE,58,7.0,12.0,95,0.29,,,0.23,Wunderground v.1.15,2013-03-18 08:04:00,
2013-03-18 03:09:00,40.0,38.7,29.76,NE,56,8.0,16.0,95,0.16,,,0.24,Wunderground v.1.15,2013-03-18 08:09:00,
2013-03-18 03:14:00,39.9,38.6,29.77,ENE,61,5.0,12.0,95,0.07,,,0.24,Wunderground v.1.15,2013-03-18 08:14:00,
2013-03-18 03:19:00,39.6,38.3,29.75,East,89,6.0,13.0,95,0.05,,,0.25,Wunderground v.1.15,2013-03-18 08:19:00,
2013-03-18 03:24:00,39.4,38.1,29.74,ENE,66,4.0,10.0,95,0.05,,,0.25,Wunderground v.1.15,2013-03-18 08:24:00,
2013-03-18 03:29:00,39.6,38.3,29.73,East,95,9.0,13.0,95,0.42,,,0.28,Wunderground v.1.15,2013-03-18 08:29:00,
2013-03-18 03:34:00,39.8,38.5,29.73,ESE,113,5.0,11.0,95,0.15,,,0.29,Wunderground v.1.15,2013-03-18 08:34:00,
2013-03-18 03:39:00,39.8,38.5,29.69,SE,128,9.0,15.0,95,0.11,,,0.30,Wunderground v.1.15,2013-03-18 08:39:00,
2013-03-18 03:44:00,39.9,38.9,29.69,SE,143,5.0,17.0,96,0.09,,,0.30,Wunderground v.1.15,2013-03-18 08:44:00,
2013-03-18 03:49:00,40.2,39.2,29.67,SSE,148,4.0,17.0,96,2.14,,,0.36,Wunderground v.1.15,2013-03-18 08:49:00,
2013-03-18 03:54:00,40.5,39.4,29.70,NNW,341,7.0,10.0,96,0.40,,,0.40,Wunderground v.1.15,2013-03-18 08:54:00,
2013-03-18 03:59:00,40.8,39.7,29.70,SSE,160,4.0,10.0,96,0.60,,,0.44,Wunderground v.1.15,2013-03-18 08:59:00,
2013-03-18 04:04:00,41.2,40.4,29.68,SE,132,5.0,8.0,97,0.96,,,0.56,Wunderground v.1.15,2013-03-18 09:04:00,
2013-03-18 04:09:00,41.5,40.7,29.68,ESE,114,1.0,10.0,97,0.49,,,0.59,Wunderground v.1.15,2013-03-18 09:09:00,
2013-03-18 04:14:00,41.8,41.0,29.70,SSE,165,3.0,7.0,97,0.47,,,0.68,Wunderground v.1.15,2013-03-18 09:14:00,
2013-03-18 04:19:00,42.0,41.2,29.71,NNW,336,0.0,7.0,97,0.21,,,0.71,Wunderground v.1.15,2013-03-18 09:19:00,
2013-03-18 04:24:00,42.1,41.3,29.70,SSE,162,7.0,8.0,97,0.08,,,0.71,Wunderground v.1.15,2013-03-18 09:24:00,
2013-03-18 04:29:00,42.1,41.0,29.70,West,271,0.0,8.0,96,0.05,,,0.71,Wunderground v.1.15,2013-03-18 09:29:00,
2013-03-18 04:34:00,42.2,41.1,29.70,NE,41,1.0,4.0,96,0.00,,,0.71,Wunderground v.1.15,2013-03-18 09:34:00,
2013-03-18 04:39:00,42.1,41.0,29.70,SSE,155,2.0,4.0,96,0.00,,,0.72,Wunderground v.1.15,2013-03-18 09:39:00,
2013-03-18 04:44:00,42.2,41.1,29.70,SSE,158,3.0,5.0,96,0.00,,,0.72,Wunderground v.1.15,2013-03-18 09:44:00,
2013-03-18 04:49:00,42.2,41.1,29.70,ESE,114,2.0,5.0,96,0.00,,,0.72,Wunderground v.1.15,2013-03-18 09:49:00,
2013-03-18 04:54:00,42.1,41.0,29.69,SE,136,4.0,7.0,96,0.00,,,0.72,Wunderground v.1.15,2013-03-18 09:54:00,
2013-03-18 04:59:00,42.0,40.9,29.68,SW,231,3.0,8.0,96,0.00,,,0.72,Wunderground v.1.15,2013-03-18 09:59:00,
2013-03-18 05:04:00,42.0,40.9,29.68,SW,228,2.0,6.0,96,0.42,,,0.74,Wunderground v.1.15,2013-03-18 10:04:00,
2013-03-18 05:09:00,42.0,40.9,29.68,SSW,212,4.0,12.0,96,0.15,,,0.75,Wunderground v.1.15,2013-03-18 10:09:00,
2013-03-18 05:14:00,42.1,41.0,29.68,SSW,208,4.0,10.0,96,0.08,,,0.75,Wunderground v.1.15,2013-03-18 10:14:00,
2013-03-18 05:19:00,42.1,41.0,29.68,SSE,156,4.0,10.0,96,0.05,,,0.75,Wunderground v.1.15,2013-03-18 10:19:00,
2013-03-18 05:24:00,42.2,41.1,29.69,SSE,158,2.0,5.0,96,0.00,,,0.75,Wunderground v.1.15,2013-03-18 10:24:00,
2013-03-18 05:29:00,42.3,41.5,29.68,South,172,1.0,5.0,97,0.00,,,0.76,Wunderground v.1.15,2013-03-18 10:29:00,
2013-03-18 05:34:00,42.4,41.6,29.68,SSE,153,2.0,2.0,97,0.00,,,0.76,Wunderground v.1.15,2013-03-18 10:34:00,
2013-03-18 05:39:00,42.5,41.7,29.69,WSW,255,1.0,5.0,97,0.00,,,0.76,Wunderground v.1.15,2013-03-18 10:39:00,
2013-03-18 05:44:00,42.6,41.8,29.68,SE,146,0.0,3.0,97,0.05,,,0.77,Wunderground v.1.15,2013-03-18 10:44:00,
2013-03-18 05:49:00,42.7,41.9,29.68,SSW,196,1.0,3.0,97,0.05,,,0.77,Wunderground v.1.15,2013-03-18 10:49:00,
2013-03-18 05:55:00,42.8,42.0,29.68,SSE,167,1.0,2.0,97,0.04,,,0.77,Wunderground v.1.15,2013-03-18 10:55:00,
2013-03-18 06:00:00,43.0,42.2,29.68,SSE,166,3.0,3.0,97,0.00,,,0.77,Wunderground v.1.15,2013-03-18 11:00:00,
2013-03-18 06:04:00,43.2,42.4,29.69,South,181,3.0,7.0,97,0.00,,,0.77,Wunderground v.1.15,2013-03-18 11:04:00,
2013-03-18 06:09:00,43.3,42.5,29.68,SSW,205,5.0,5.0,97,0.00,,,0.77,Wunderground v.1.15,2013-03-18 11:09:00,
2013-03-18 06:14:00,43.5,42.7,29.67,South,174,5.0,9.0,97,0.00,,,0.77,Wunderground v.1.15,2013-03-18 11:14:00,
2013-03-18 06:20:00,43.7,42.9,29.66,SSW,197,2.0,4.0,97,0.00,,,0.77,Wunderground v.1.15,2013-03-18 11:20:00,
2013-03-18 06:25:00,44.0,43.2,29.67,SSW,201,3.0,5.0,97,0.00,,,0.77,Wunderground v.1.15,2013-03-18 11:25:00,
2013-03-18 06:30:00,44.1,43.3,29.67,SSE,156,5.0,5.0,97,0.00,,,0.77,Wunderground v.1.15,2013-03-18 11:30:00,
2013-03-18 06:35:00,44.2,43.4,29.66,SSE,164,2.0,7.0,97,0.00,,,0.77,Wunderground v.1.15,2013-03-18 11:35:00,
2013-03-18 06:40:00,44.3,43.5,29.65,SSW,197,3.0,3.0,97,0.00,,,0.77,Wunderground v.1.15,2013-03-18 11:40:00,
2013-03-18 06:45:00,44.3,43.5,29.65,SSW,204,2.0,6.0,97,0.00,,,0.77,Wunderground v.1.15,2013-03-18 11:45:00,
2013-03-18 06:50:00,44.3,43.5,29.66,SW,221,2.0,3.0,97,0.00,,,0.77,Wunderground v.1.15,2013-03-18 11:50:00,
2013-03-18 06:55:00,44.5,43.7,29.67,SW,218,2.0,4.0,97,0.00,,,0.77,Wunderground v.1.15,2013-03-18 11:55:00,
2013-03-18 07:00:00,44.6,43.8,29.67,WNW,287,2.0,2.0,97,0.00,,,0.77,Wunderground v.1.15,2013-03-18 12:00:00,
2013-03-18 07:05:00,44.7,43.9,29.68,SSW,200,0.0,3.0,97,0.00,,,0.77,Wunderground v.1.15,2013-03-18 12:05:00,
2013-03-18 07:10:00,44.8,44.0,29.68,WNW,284,1.0,1.0,97,0.00,,,0.77,Wunderground v.1.15,2013-03-18 12:10:00,
2013-03-18 07:15:00,45.0,44.2,29.69,WNW,286,1.0,2.0,97,0.00,,,0.77,Wunderground v.1.15,2013-03-18 12:15:00,
2013-03-18 07:20:00,45.1,44.3,29.69,NW,315,0.0,1.0,97,0.00,,,0.77,Wunderground v.1.15,2013-03-18 12:20:00,
2013-03-18 07:25:00,45.3,44.5,29.69,WNW,287,1.0,5.0,97,0.00,,,0.77,Wunderground v.1.15,2013-03-18 12:25:00,
2013-03-18 07:30:00,45.4,44.6,29.69,SW,219,1.0,2.0,97,0.00,,,0.77,Wunderground v.1.15,2013-03-18 12:30:00,
2013-03-18 07:35:00,45.4,44.6,29.69,WNW,294,3.0,6.0,97,0.00,,,0.77,Wunderground v.1.15,2013-03-18 12:35:00,
2013-03-18 07:40:00,45.5,44.7,29.69,North,356,0.0,3.0,97,0.00,,,0.77,Wunderground v.1.15,2013-03-18 12:40:00,
2013-03-18 07:45:00,45.5,44.7,29.69,NW,319,4.0,4.0,97,0.00,,,0.77,Wunderground v.1.15,2013-03-18 12:45:00,
2013-03-18 07:50:00,45.5,44.7,29.70,NW,318,5.0,7.0,97,0.00,,,0.77,Wunderground v.1.15,2013-03-18 12:50:00,
2013-03-18 07:55:00,45.4,44.6,29.71,NW,316,5.0,11.0,97,0.00,,,0.77,Wunderground v.1.15,2013-03-18 12:55:00,
2013-03-18 08:00:00,45.3,44.5,29.71,NW,307,5.0,6.0,97,0.00,,,0.77,Wunderground v.1.15,2013-03-18 13:00:00,
2013-03-18 08:05:00,45.4,44.6,29.73,NW,304,3.0,6.0,97,0.00,,,0.77,Wunderground v.1.15,2013-03-18 13:05:00,
2013-03-18 08:10:00,45.4,44.6,29.72,WNW,300,5.0,5.0,97,0.00,,,0.77,Wunderground v.1.15,2013-03-18 13:10:00,
2013-03-18 08:15:00,45.4,44.6,29.71,WNW,295,4.0,5.0,97,0.00,,,0.77,Wunderground v.1.15,2013-03-18 13:15:00,
2013-03-18 08:20:00,45.4,44.6,29.71,NW,309,2.0,3.0,97,0.00,,,0.77,Wunderground v.1.15,2013-03-18 13:20:00,
2013-03-18 08:25:00,45.4,44.6,29.72,West,278,1.0,3.0,97,0.00,,,0.77,Wunderground v.1.15,2013-03-18 13:25:00,
2013-03-18 08:30:00,45.5,44.7,29.72,West,262,1.0,1.0,97,0.00,,,0.77,Wunderground v.1.15,2013-03-18 13:30:00,
2013-03-18 08:35:00,45.5,44.7,29.73,WSW,252,1.0,2.0,97,0.00,,,0.77,Wunderground v.1.15,2013-03-18 13:35:00,
2013-03-18 08:40:00,45.6,44.8,29.74,WNW,288,2.0,2.0,97,0.00,,,0.77,Wunderground v.1.15,2013-03-18 13:40:00,
2013-03-18 08:45:00,45.5,44.7,29.74,NW,304,2.0,6.0,97,0.00,,,0.77,Wunderground v.1.15,2013-03-18 13:45:00,
2013-03-18 08:50:00,45.6,44.8,29.74,WNW,287,1.0,2.0,97,0.00,,,0.77,Wunderground v.1.15,2013-03-18 13:50:00,
2013-03-18 08:55:00,45.7,44.9,29.74,West,273,1.0,4.0,97,0.00,,,0.77,Wunderground v.1.15,2013-03-18 13:55:00,
2013-03-18 09:00:00,45.8,45.0,29.75,West,263,2.0,3.0,97,0.00,,,0.77,Wunderground v.1.15,2013-03-18 14:00:00,
2013-03-18 09:05:00,45.9,45.1,29.74,WSW,252,2.0,5.0,97,0.00,,,0.77,Wunderground v.1.15,2013-03-18 14:05:00,
2013-03-18 09:10:00,46.0,45.2,29.74,SSW,210,4.0,5.0,97,0.00,,,0.77,Wunderground v.1.15,2013-03-18 14:10:00,
2013-03-18 09:15:00,46.0,45.2,29.73,West,260,2.0,5.0,97,0.00,,,0.77,Wunderground v.1.15,2013-03-18 14:15:00,
2013-03-18 09:20:00,46.1,45.3,29.73,SSW,212,1.0,4.0,97,0.00,,,0.77,Wunderground v.1.15,2013-03-18 14:20:00,
2013-03-18 09:25:00,46.1,45.3,29.74,West,272,2.0,6.0,97,0.00,,,0.77,Wunderground v.1.15,2013-03-18 14:25:00,
2013-03-18 09:30:00,46.3,45.5,29.75,SW,221,1.0,2.0,97,0.00,,,0.77,Wunderground v.1.15,2013-03-18 14:30:00,
2013-03-18 09:35:00,46.3,45.2,29.75,WNW,284,2.0,5.0,96,0.00,,,0.77,Wunderground v.1.15,2013-03-18 14:35:00,
2013-03-18 09:40:00,46.5,45.4,29.75,WSW,252,3.0,3.0,96,0.00,,,0.77,Wunderground v.1.15,2013-03-18 14:40:00,
2013-03-18 09:45:00,46.5,45.4,29.76,WNW,295,3.0,6.0,96,0.00,,,0.77,Wunderground v.1.15,2013-03-18 14:45:00,
2013-03-18 09:50:00,46.7,45.6,29.76,NW,305,3.0,4.0,96,0.00,,,0.77,Wunderground v.1.15,2013-03-18 14:50:00,
2013-03-18 09:55:00,46.9,45.8,29.77,West,274,1.0,6.0,96,0.00,,,0.77,Wunderground v.1.15,2013-03-18 14:55:00,
2013-03-18 10:00:00,47.1,46.0,29.77,WNW,283,4.0,6.0,96,0.00,,,0.77,Wunderground v.1.15,2013-03-18 15:00:00,
2013-03-18 10:05:00,47.2,46.1,29.78,West,281,3.0,7.0,96,0.00,,,0.77,Wunderground v.1.15,2013-03-18 15:05:00,
2013-03-18 10:10:00,47.3,46.2,29.77,West,276,3.0,6.0,96,0.00,,,0.77,Wunderground v.1.15,2013-03-18 15:10:00,
2013-03-18 10:15:00,47.5,46.4,29.77,West,280,4.0,9.0,96,0.00,,,0.77,Wunderground v.1.15,2013-03-18 15:15:00,
2013-03-18 10:20:00,47.6,46.2,29.77,WNW,285,5.0,7.0,95,0.00,,,0.77,Wunderground v.1.15,2013-03-18 15:20:00,
2013-03-18 10:25:00,47.7,46.3,29.78,NW,319,6.0,12.0,95,0.00,,,0.77,Wunderground v.1.15,2013-03-18 15:25:00,
2013-03-18 10:30:00,47.8,46.2,29.77,WNW,300,4.0,7.0,94,0.00,,,0.77,Wunderground v.1.15,2013-03-18 15:30:00,
2013-03-18 10:35:00,47.9,46.3,29.77,WNW,284,7.0,11.0,94,0.00,,,0.77,Wunderground v.1.15,2013-03-18 15:35:00,
2013-03-18 10:40:00,48.0,46.1,29.77,NW,309,6.0,13.0,93,0.00,,,0.77,Wunderground v.1.15,2013-03-18 15:40:00,
2013-03-18 10:45:00,48.1,46.5,29.77,NW,308,7.0,13.0,94,0.00,,,0.77,Wunderground v.1.15,2013-03-18 15:45:00,
2013-03-18 10:50:00,48.3,46.4,29.77,NW,318,6.0,8.0,93,0.00,,,0.77,Wunderground v.1.15,2013-03-18 15:50:00,
2013-03-18 10:55:00,48.3,46.4,29.77,NW,316,7.0,8.0,93,0.00,,,0.77,Wunderground v.1.15,2013-03-18 15:55:00,
2013-03-18 11:00:00,48.7,46.8,29.76,NW,305,2.0,5.0,93,0.00,,,0.77,Wunderground v.1.15,2013-03-18 16:00:00,
2013-03-18 11:05:00,48.9,46.7,29.77,WNW,287,5.0,7.0,92,0.00,,,0.77,Wunderground v.1.15,2013-03-18 16:05:00,
2013-03-18 11:10:00,49.1,46.9,29.77,NW,307,5.0,7.0,92,0.00,,,0.77,Wunderground v.1.15,2013-03-18 16:10:00,
2013-03-18 11:15:00,49.0,46.5,29.77,WNW,282,3.0,11.0,91,0.00,,,0.77,Wunderground v.1.15,2013-03-18 16:15:00,
2013-03-18 11:20:00,48.9,46.4,29.77,NW,311,7.0,7.0,91,0.00,,,0.77,Wunderground v.1.15,2013-03-18 16:20:00,
2013-03-18 11:25:00,49.0,46.5,29.78,NW,309,6.0,8.0,91,0.00,,,0.77,Wunderground v.1.15,2013-03-18 16:25:00,
2013-03-18 11:30:00,48.9,46.1,29.78,NW,305,7.0,7.0,90,0.00,,,0.77,Wunderground v.1.15,2013-03-18 16:30:00,
2013-03-18 11:35:00,49.0,46.5,29.77,WNW,297,4.0,9.0,91,0.00,,,0.77,Wunderground v.1.15,2013-03-18 16:35:00,
2013-03-18 11:40:00,49.0,46.2,29.78,NW,312,8.0,8.0,90,0.00,,,0.77,Wunderground v.1.15,2013-03-18 16:40:00,
2013-03-18 11:45:00,49.1,46.3,29.78,NW,309,3.0,8.0,90,0.00,,,0.77,Wunderground v.1.15,2013-03-18 16:45:00,
2013-03-18 11:50:00,49.1,46.0,29.78,NW,323,5.0,7.0,89,0.00,,,0.77,Wunderground v.1.15,2013-03-18 16:50:00,
2013-03-18 11:55:00,49.1,45.7,29.79,WNW,299,10.0,10.0,88,0.00,,,0.77,Wunderground v.1.15,2013-03-18 16:55:00,
2013-03-18 12:00:00,49.1,45.7,29.79,WNW,293,8.0,8.0,88,0.00,,,0.77,Wunderground v.1.15,2013-03-18 17:00:00,
2013-03-18 12:05:00,48.9,45.5,29.80,WNW,301,7.0,14.0,88,0.00,,,0.77,Wunderground v.1.15,2013-03-18 17:05:00,
2013-03-18 12:10:00,48.9,45.5,29.80,NW,314,8.0,12.0,88,0.00,,,0.77,Wunderground v.1.15,2013-03-18 17:10:00,
2013-03-18 12:15:00,48.7,45.0,29.80,NW,318,10.0,14.0,87,0.00,,,0.77,Wunderground v.1.15,2013-03-18 17:15:00,
2013-03-18 12:20:00,48.6,44.9,29.80,NW,323,7.0,11.0,87,0.00,,,0.77,Wunderground v.1.15,2013-03-18 17:20:00,
2013-03-18 12:25:00,48.7,45.3,29.80,NW,316,9.0,12.0,88,0.00,,,0.77,Wunderground v.1.15,2013-03-18 17:25:00,
2013-03-18 12:30:00,48.6,45.2,29.81,NW,316,7.0,9.0,88,0.00,,,0.77,Wunderground v.1.15,2013-03-18 17:30:00,
2013-03-18 12:35:00,48.7,45.3,29.81,WNW,301,9.0,11.0,88,0.00,,,0.77,Wunderground v.1.15,2013-03-18 17:35:00,
2013-03-18 12:40:00,48.6,45.2,29.80,WNW,300,5.0,7.0,88,0.00,,,0.77,Wunderground v.1.15,2013-03-18 17:40:00,
2013-03-18 12:45:00,48.8,45.1,29.80,NW,321,6.0,9.0,87,0.00,,,0.77,Wunderground v.1.15,2013-03-18 17:45:00,
2013-03-18 12:50:00,48.9,45.5,29.80,WNW,295,5.0,7.0,88,0.00,,,0.77,Wunderground v.1.15,2013-03-18 17:50:00,
2013-03-18 12:55:00,48.7,45.0,29.79,WNW,301,4.0,8.0,87,0.00,,,0.77,Wunderground v.1.15,2013-03-18 17:55:00,
2013-03-18 13:01:00,48.8,45.1,29.79,WNW,282,6.0,11.0,87,0.00,,,0.77,Wunderground v.1.15,2013-03-18 18:01:00,
2013-03-18 13:06:00,48.8,45.4,29.79,WNW,292,6.0,11.0,88,0.00,,,0.77,Wunderground v.1.15,2013-03-18 18:06:00,
2013-03-18 13:11:00,49.1,45.4,29.78,WNW,297,6.0,7.0,87,0.00,,,0.77,Wunderground v.1.15,2013-03-18 18:11:00,
2013-03-18 13:16:00,49.1,45.7,29.78,NW,311,4.0,7.0,88,0.00,,,0.77,Wunderground v.1.15,2013-03-18 18:16:00,
2013-03-18 13:21:00,49.2,45.2,29.78,WNW,301,6.0,8.0,86,0.00,,,0.77,Wunderground v.1.15,2013-03-18 18:21:00,
2013-03-18 13:26:00,49.1,45.1,29.77,NW,307,5.0,8.0,86,0.00,,,0.77,Wunderground v.1.15,2013-03-18 18:26:00,
2013-03-18 13:31:00,49.1,45.4,29.77,West,275,3.0,5.0,87,0.00,,,0.77,Wunderground v.1.15,2013-03-18 18:31:00,
2013-03-18 13:36:00,49.2,45.2,29.77,NW,322,3.0,5.0,86,0.00,,,0.77,Wunderground v.1.15,2013-03-18 18:36:00,
2013-03-18 13:41:00,49.3,44.7,29.76,WNW,302,2.0,4.0,84,0.00,,,0.77,Wunderground v.1.15,2013-03-18 18:41:00,
2013-03-18 13:46:00,49.7,45.4,29.76,NW,305,2.0,5.0,85,0.00,,,0.77,Wunderground v.1.15,2013-03-18 18:46:00,
2013-03-18 13:51:00,50.0,45.0,29.76,NW,310,6.0,7.0,83,0.00,,,0.77,Wunderground v.1.15,2013-03-18 18:51:00,
2013-03-18 13:56:00,49.9,44.9,29.76,NNW,328,3.0,9.0,83,0.00,,,0.77,Wunderground v.1.15,2013-03-18 18:56:00,
2013-03-18 14:01:00,49.9,45.3,29.76,NNW,330,6.0,7.0,84,0.00,,,0.77,Wunderground v.1.15,2013-03-18 19:01:00,
2013-03-18 14:06:00,49.8,44.8,29.76,NW,307,8.0,10.0,83,0.00,,,0.77,Wunderground v.1.15,2013-03-18 19:06:00,
2013-03-18 14:11:00,49.6,45.3,29.76,NW,323,5.0,8.0,85,0.00,,,0.77,Wunderground v.1.15,2013-03-18 19:11:00,
2013-03-18 14:16:00,49.5,44.9,29.77,NW,307,6.0,8.0,84,0.00,,,0.77,Wunderground v.1.15,2013-03-18 19:16:00,
2013-03-18 14:21:00,49.6,45.0,29.76,NW,325,7.0,9.0,84,0.00,,,0.77,Wunderground v.1.15,2013-03-18 19:21:00,
2013-03-18 14:26:00,49.7,44.7,29.76,NW,307,7.0,10.0,83,0.00,,,0.77,Wunderground v.1.15,2013-03-18 19:26:00,
2013-03-18 14:31:00,49.7,44.7,29.77,NW,311,5.0,6.0,83,0.00,,,0.77,Wunderground v.1.15,2013-03-18 19:31:00,
2013-03-18 14:36:00,49.7,44.7,29.77,NW,318,4.0,9.0,83,0.00,,,0.77,Wunderground v.1.15,2013-03-18 19:36:00,
2013-03-18 14:41:00,49.8,44.5,29.77,NW,307,4.0,5.0,82,0.00,,,0.77,Wunderground v.1.15,2013-03-18 19:41:00,
2013-03-18 14:46:00,49.8,44.8,29.77,WNW,301,4.0,10.0,83,0.00,,,0.77,Wunderground v.1.15,2013-03-18 19:46:00,
2013-03-18 14:51:00,49.9,44.9,29.77,North,3,5.0,9.0,83,0.00,,,0.77,Wunderground v.1.15,2013-03-18 19:51:00,
2013-03-18 14:56:00,49.7,44.7,29.78,NW,312,6.0,9.0,83,0.00,,,0.77,Wunderground v.1.15,2013-03-18 19:56:00,
2013-03-18 15:01:00,49.6,44.6,29.78,NNW,327,5.0,8.0,83,0.00,,,0.77,Wunderground v.1.15,2013-03-18 20:01:00,
2013-03-18 15:06:00,49.6,45.0,29.78,NNW,331,6.0,8.0,84,0.00,,,0.77,Wunderground v.1.15,2013-03-18 20:06:00,
2013-03-18 15:11:00,49.6,45.0,29.79,NW,314,7.0,9.0,84,0.00,,,0.77,Wunderground v.1.15,2013-03-18 20:11:00,
2013-03-18 15:16:00,49.5,44.9,29.79,WNW,284,9.0,11.0,84,0.00,,,0.77,Wunderground v.1.15,2013-03-18 20:16:00,
2013-03-18 15:21:00,49.4,44.8,29.80,WNW,294,7.0,9.0,84,0.00,,,0.77,Wunderground v.1.15,2013-03-18 20:21:00,
2013-03-18 15:27:00,49.4,44.8,29.80,WNW,303,7.0,12.0,84,0.00,,,0.77,Wunderground v.1.15,2013-03-18 20:27:00,
2013-03-18 15:32:00,49.4,44.8,29.80,NW,315,7.0,9.0,84,0.00,,,0.77,Wunderground v.1.15,2013-03-18 20:32:00,
2013-03-18 15:37:00,49.4,44.8,29.80,WNW,294,6.0,9.0,84,0.00,,,0.77,Wunderground v.1.15,2013-03-18 20:37:00,
2013-03-18 15:42:00,49.4,45.1,29.80,NW,325,4.0,8.0,85,0.00,,,0.77,Wunderground v.1.15,2013-03-18 20:42:00,
2013-03-18 15:47:00,49.5,44.9,29.80,NW,315,5.0,9.0,84,0.00,,,0.77,Wunderground v.1.15,2013-03-18 20:47:00,
2013-03-18 15:52:00,49.6,45.0,29.81,NNW,327,4.0,5.0,84,0.00,,,0.77,Wunderground v.1.15,2013-03-18 20:52:00,
2013-03-18 15:57:00,49.7,45.1,29.81,NW,317,4.0,6.0,84,0.00,,,0.77,Wunderground v.1.15,2013-03-18 20:57:00,
2013-03-18 16:02:00,49.7,45.1,29.81,NNE,18,5.0,7.0,84,0.00,,,0.77,Wunderground v.1.15,2013-03-18 21:02:00,
2013-03-18 16:07:00,49.7,45.1,29.81,NNW,329,5.0,7.0,84,0.00,,,0.77,Wunderground v.1.15,2013-03-18 21:07:00,
2013-03-18 16:12:00,49.7,44.7,29.81,NW,311,3.0,6.0,83,0.00,,,0.77,Wunderground v.1.15,2013-03-18 21:12:00,
2013-03-18 16:17:00,49.7,45.1,29.82,North,352,1.0,9.0,84,0.00,,,0.77,Wunderground v.1.15,2013-03-18 21:17:00,
2013-03-18 16:22:00,49.6,44.0,29.82,NNW,347,3.0,9.0,81,0.00,,,0.77,Wunderground v.1.15,2013-03-18 21:22:00,
2013-03-18 16:27:00,49.4,43.5,29.83,NNW,331,6.0,13.0,80,0.00,,,0.77,Wunderground v.1.15,2013-03-18 21:27:00,
2013-03-18 16:32:00,49.3,43.4,29.83,NW,326,9.0,12.0,80,0.00,,,0.77,Wunderground v.1.15,2013-03-18 21:32:00,
2013-03-18 16:37:00,49.1,42.9,29.83,NW,317,5.0,14.0,79,0.00,,,0.77,Wunderground v.1.15,2013-03-18 21:37:00,
2013-03-18 16:42:00,49.1,43.2,29.83,NW,319,6.0,10.0,80,0.00,,,0.77,Wunderground v.1.15,2013-03-18 21:42:00,
2013-03-18 16:47:00,49.0,43.1,29.83,NW,311,4.0,15.0,80,0.00,,,0.77,Wunderground v.1.15,2013-03-18 21:47:00,
2013-03-18 16:53:00,48.8,42.9,29.84,North,354,6.0,10.0,80,0.00,,,0.77,Wunderground v.1.15,2013-03-18 21:53:00,
2013-03-18 16:58:00,48.6,43.0,29.84,NNW,337,4.0,10.0,81,0.00,,,0.77,Wunderground v.1.15,2013-03-18 21:58:00,
2013-03-18 17:03:00,48.5,43.3,29.84,NW,320,5.0,5.0,82,0.00,,,0.77,Wunderground v.1.15,2013-03-18 22:03:00,
2013-03-18 17:08:00,49.2,43.3,29.84,NW,311,4.0,7.0,80,0.00,,,0.77,Wunderground v.1.15,2013-03-18 22:08:00,
2013-03-18 17:13:00,50.1,43.5,29.84,NW,313,4.0,6.0,78,0.00,,,0.77,Wunderground v.1.15,2013-03-18 22:13:00,
2013-03-18 17:18:00,50.5,43.9,29.84,NW,307,4.0,6.0,78,0.00,,,0.77,Wunderground v.1.15,2013-03-18 22:18:00,
2013-03-18 17:23:00,50.5,42.5,29.85,NW,309,4.0,10.0,74,0.00,,,0.77,Wunderground v.1.15,2013-03-18 22:23:00,
2013-03-18 17:28:00,50.4,42.4,29.85,NNW,338,5.0,10.0,74,0.00,,,0.77,Wunderground v.1.15,2013-03-18 22:28:00,
2013-03-18 17:33:00,50.2,42.2,29.85,NW,307,7.0,10.0,74,0.00,,,0.77,Wunderground v.1.15,2013-03-18 22:33:00,
2013-03-18 17:38:00,50.0,42.0,29.85,NW,316,3.0,10.0,74,0.00,,,0.77,Wunderground v.1.15,2013-03-18 22:38:00,
2013-03-18 17:43:00,49.8,42.2,29.85,NNW,329,5.0,8.0,75,0.00,,,0.77,Wunderground v.1.15,2013-03-18 22:43:00,
2013-03-18 17:48:00,49.8,41.8,29.86,NW,306,4.0,8.0,74,0.00,,,0.77,Wunderground v.1.15,2013-03-18 22:48:00,
2013-03-18 17:53:00,49.7,42.1,29.86,NNW,329,2.0,8.0,75,0.00,,,0.77,Wunderground v.1.15,2013-03-18 22:53:00,
2013-03-18 17:58:00,49.5,41.6,29.86,NW,314,5.0,8.0,74,0.00,,,0.77,Wunderground v.1.15,2013-03-18 22:58:00,
2013-03-18 18:03:00,49.3,41.4,29.86,NW,316,4.0,7.0,74,0.00,,,0.77,Wunderground v.1.15,2013-03-18 23:03:00,
2013-03-18 18:08:00,49.5,41.6,29.86,NW,313,4.0,7.0,74,0.00,,,0.77,Wunderground v.1.15,2013-03-18 23:08:00,
2013-03-18 18:13:00,49.3,41.7,29.86,NNW,329,1.0,4.0,75,0.00,,,0.77,Wunderground v.1.15,2013-03-18 23:13:00,
2013-03-18 18:18:00,49.3,41.7,29.87,NW,325,4.0,6.0,75,0.00,,,0.77,Wunderground v.1.15,2013-03-18 23:18:00,
2013-03-18 18:23:00,49.0,41.4,29.87,NW,326,4.0,4.0,75,0.00,,,0.77,Wunderground v.1.15,2013-03-18 23:23:00,
2013-03-18 18:28:00,48.8,41.2,29.87,NW,314,5.0,5.0,75,0.00,,,0.77,Wunderground v.1.15,2013-03-18 23:28:00,
2013-03-18 18:33:00,48.9,41.3,29.88,NW,319,4.0,5.0,75,0.00,,,0.77,Wunderground v.1.15,2013-03-18 23:33:00,
2013-03-18 18:38:00,49.0,41.4,29.88,NNW,336,1.0,5.0,75,0.00,,,0.77,Wunderground v.1.15,2013-03-18 23:38:00,
2013-03-18 18:43:00,48.9,41.3,29.88,NNW,330,2.0,4.0,75,0.00,,,0.77,Wunderground v.1.15,2013-03-18 23:43:00,
2013-03-18 18:48:00,48.6,41.0,29.88,NW,323,2.0,4.0,75,0.00,,,0.77,Wunderground v.1.15,2013-03-18 23:48:00,
2013-03-18 18:53:00,48.3,40.7,29.89,NNW,333,3.0,3.0,75,0.00,,,0.77,Wunderground v.1.15,2013-03-18 23:53:00,
2013-03-18 18:58:00,48.0,40.8,29.90,NNW,345,0.0,4.0,76,0.00,,,0.77,Wunderground v.1.15,2013-03-18 23:58:00,
2013-03-18 19:03:00,47.7,40.5,29.90,NW,309,1.0,4.0,76,0.00,,,0.77,Wunderground v.1.15,2013-03-19 00:03:00,
2013-03-18 19:08:00,47.3,40.5,29.90,NW,321,1.0,4.0,77,0.00,,,0.77,Wunderground v.1.15,2013-03-19 00:08:00,
2013-03-18 19:13:00,47.1,40.3,29.90,NW,326,1.0,2.0,77,0.00,,,0.77,Wunderground v.1.15,2013-03-19 00:13:00,
2013-03-18 19:18:00,46.9,40.1,29.91,NNW,328,0.0,2.0,77,0.00,,,0.77,Wunderground v.1.15,2013-03-19 00:18:00,
2013-03-18 19:23:00,46.7,40.2,29.91,NNW,341,0.0,3.0,78,0.00,,,0.77,Wunderground v.1.15,2013-03-19 00:23:00,
2013-03-18 19:28:00,46.5,40.0,29.91,NNW,341,1.0,3.0,78,0.00,,,0.77,Wunderground v.1.15,2013-03-19 00:28:00,
2013-03-18 19:33:00,46.2,40.0,29.91,NNW,341,0.0,1.0,79,0.00,,,0.77,Wunderground v.1.15,2013-03-19 00:33:00,
2013-03-18 19:38:00,45.7,39.9,29.91,NNW,341,0.0,1.0,80,0.00,,,0.77,Wunderground v.1.15,2013-03-19 00:38:00,
2013-03-18 19:43:00,45.2,39.7,29.91,NNW,342,0.0,0.0,81,0.00,,,0.77,Wunderground v.1.15,2013-03-19 00:43:00,
2013-03-18 19:48:00,44.4,39.2,29.92,West,276,0.0,1.0,82,0.00,,,0.77,Wunderground v.1.15,2013-03-19 00:48:00,
2013-03-18 19:53:00,43.6,39.1,29.92,West,277,0.0,0.0,84,0.00,,,0.77,Wunderground v.1.15,2013-03-19 00:53:00,
2013-03-18 19:58:00,42.9,38.4,29.92,West,277,0.0,0.0,84,0.00,,,0.77,Wunderground v.1.15,2013-03-19 00:58:00,
2013-03-18 20:03:00,42.2,38.6,29.92,West,276,0.0,0.0,87,0.00,,,0.77,Wunderground v.1.15,2013-03-19 01:03:00,
2013-03-18 20:08:00,41.7,38.4,29.93,West,278,0.0,1.0,88,0.00,,,0.77,Wunderground v.1.15,2013-03-19 01:08:00,
2013-03-18 20:13:00,41.3,38.3,29.93,West,278,0.0,0.0,89,0.00,,,0.77,Wunderground v.1.15,2013-03-19 01:13:00,
2013-03-18 20:18:00,40.8,37.8,29.93,West,277,0.0,0.0,89,0.00,,,0.77,Wunderground v.1.15,2013-03-19 01:18:00,
2013-03-18 20:24:00,40.4,37.7,29.93,West,277,0.0,0.0,90,0.00,,,0.77,Wunderground v.1.15,2013-03-19 01:24:00,
2013-03-18 20:29:00,40.0,37.3,29.93,West,277,0.0,0.0,90,0.00,,,0.77,Wunderground v.1.15,2013-03-19 01:29:00,
2013-03-18 20:34:00,39.6,36.9,29.93,West,277,0.0,0.0,90,0.00,,,0.77,Wunderground v.1.15,2013-03-19 01:34:00,
2013-03-18 20:39:00,39.4,37.3,29.93,West,277,0.0,0.0,92,0.00,,,0.77,Wunderground v.1.15,2013-03-19 01:39:00,
2013-03-18 20:44:00,39.5,37.4,29.94,West,276,0.0,0.0,92,0.00,,,0.77,Wunderground v.1.15,2013-03-19 01:44:00,
2013-03-18 20:49:00,39.3,37.4,29.94,West,276,0.0,0.0,93,0.00,,,0.77,Wunderground v.1.15,2013-03-19 01:49:00,
2013-03-18 20:54:00,39.6,38.0,29.95,West,277,0.0,0.0,94,0.00,,,0.77,Wunderground v.1.15,2013-03-19 01:54:00,
2013-03-18 20:59:00,39.6,37.7,29.95,West,277,0.0,0.0,93,0.00,,,0.77,Wunderground v.1.15,2013-03-19 01:59:00,
2013-03-18 21:04:00,39.5,37.6,29.95,West,277,0.0,0.0,93,0.00,,,0.77,Wunderground v.1.15,2013-03-19 02:04:00,
2013-03-18 21:09:00,39.3,37.4,29.95,West,277,0.0,0.0,93,0.00,,,0.77,Wunderground v.1.15,2013-03-19 02:09:00,
2013-03-18 21:14:00,39.3,37.7,29.95,West,277,0.0,0.0,94,0.00,,,0.77,Wunderground v.1.15,2013-03-19 02:14:00,
2013-03-18 21:19:00,39.3,37.7,29.96,West,277,0.0,0.0,94,0.00,,,0.77,Wunderground v.1.15,2013-03-19 02:19:00,
2013-03-18 21:24:00,39.2,37.3,29.96,West,277,0.0,0.0,93,0.00,,,0.77,Wunderground v.1.15,2013-03-19 02:24:00,
2013-03-18 21:29:00,38.9,36.8,29.96,West,277,0.0,0.0,92,0.00,,,0.77,Wunderground v.1.15,2013-03-19 02:29:00,
2013-03-18 21:34:00,38.4,36.3,29.96,West,277,0.0,0.0,92,0.00,,,0.77,Wunderground v.1.15,2013-03-19 02:34:00,
2013-03-18 21:39:00,38.1,36.3,29.96,West,276,0.0,0.0,93,0.00,,,0.77,Wunderground v.1.15,2013-03-19 02:39:00,
2013-03-18 21:44:00,38.1,36.5,29.96,West,277,0.0,0.0,94,0.00,,,0.77,Wunderground v.1.15,2013-03-19 02:44:00,
2013-03-18 21:49:00,38.0,36.4,29.96,West,277,0.0,0.0,94,0.00,,,0.77,Wunderground v.1.15,2013-03-19 02:49:00,
2013-03-18 21:54:00,38.3,37.0,29.96,West,276,0.0,0.0,95,0.00,,,0.77,Wunderground v.1.15,2013-03-19 02:54:00,
2013-03-18 21:59:00,38.1,36.5,29.96,West,277,0.0,0.0,94,0.00,,,0.77,Wunderground v.1.15,2013-03-19 02:59:00,
2013-03-18 22:04:00,38.1,36.5,29.96,West,277,0.0,0.0,94,0.00,,,0.77,Wunderground v.1.15,2013-03-19 03:04:00,
2013-03-18 22:09:00,37.8,36.2,29.96,West,277,0.0,0.0,94,0.00,,,0.77,Wunderground v.1.15,2013-03-19 03:09:00,
2013-03-18 22:14:00,37.3,35.5,29.97,West,277,0.0,0.0,93,0.00,,,0.77,Wunderground v.1.15,2013-03-19 03:14:00,
2013-03-18 22:19:00,36.9,35.3,29.97,West,277,0.0,0.0,94,0.00,,,0.77,Wunderground v.1.15,2013-03-19 03:19:00,
2013-03-18 22:24:00,36.9,35.6,29.97,West,277,0.0,0.0,95,0.00,,,0.77,Wunderground v.1.15,2013-03-19 03:24:00,
2013-03-18 22:29:00,37.5,36.5,29.97,West,276,0.0,0.0,96,0.00,,,0.77,Wunderground v.1.15,2013-03-19 03:29:00,
2013-03-18 22:34:00,37.6,36.6,29.97,West,276,0.0,0.0,96,0.00,,,0.77,Wunderground v.1.15,2013-03-19 03:34:00,
2013-03-18 22:39:00,37.4,36.1,29.97,West,277,0.0,0.0,95,0.00,,,0.77,Wunderground v.1.15,2013-03-19 03:39:00,
2013-03-18 22:44:00,37.1,35.8,29.98,West,277,0.0,1.0,95,0.00,,,0.77,Wunderground v.1.15,2013-03-19 03:44:00,
2013-03-18 22:49:00,36.9,35.6,29.98,SSW,209,1.0,1.0,95,0.00,,,0.77,Wunderground v.1.15,2013-03-19 03:49:00,
2013-03-18 22:54:00,36.8,35.5,29.98,SW,219,1.0,1.0,95,0.00,,,0.77,Wunderground v.1.15,2013-03-19 03:54:00,
2013-03-18 22:59:00,36.4,35.1,29.98,SW,226,0.0,1.0,95,0.00,,,0.77,Wunderground v.1.15,2013-03-19 03:59:00,
2013-03-18 23:00:00,36.5,35.2,29.98,SW,227,0.0,0.0,95,0.00,,,0.77,Wunderground v.1.15,2013-03-19 04:00:00,
2013-03-18 23:01:00,36.5,35.5,29.98,SW,226,0.0,0.0,96,0.00,,,0.77,Wunderground v.1.15,2013-03-19 04:01:00,
2013-03-18 23:02:00,36.5,35.5,29.98,SW,228,0.0,0.0,96,0.00,,,0.77,Wunderground v.1.15,2013-03-19 04:02:00,
2013-03-18 23:07:00,36.6,35.6,29.98,SW,226,1.0,1.0,96,0.00,,,0.77,Wunderground v.1.15,2013-03-19 04:07:00,
2013-03-18 23:12:00,36.9,35.9,29.98,SW,226,1.0,1.0,96,0.00,,,0.77,Wunderground v.1.15,2013-03-19 04:12:00,
2013-03-18 23:17:00,36.6,35.3,29.99,SW,225,0.0,1.0,95,0.00,,,0.77,Wunderground v.1.15,2013-03-19 04:17:00,
2013-03-18 23:22:00,36.6,35.6,29.99,SW,222,1.0,1.0,96,0.00,,,0.77,Wunderground v.1.15,2013-03-19 04:22:00,
2013-03-18 23:27:00,37.0,36.2,29.99,SW,222,0.0,1.0,97,0.00,,,0.77,Wunderground v.1.15,2013-03-19 04:27:00,
2013-03-18 23:32:00,36.5,35.2,30.00,SW,223,0.0,0.0,95,0.00,,,0.77,Wunderground v.1.15,2013-03-19 04:32:00,
2013-03-18 23:37:00,36.3,35.3,30.00,SW,217,1.0,2.0,96,0.00,,,0.77,Wunderground v.1.15,2013-03-19 04:37:00,
2013-03-18 23:42:00,36.5,35.5,30.00,SW,218,0.0,1.0,96,0.00,,,0.77,Wunderground v.1.15,2013-03-19 04:42:00,
2013-03-18 23:47:00,36.6,35.8,30.00,SW,221,0.0,2.0,97,0.00,,,0.77,Wunderground v.1.15,2013-03-19 04:47:00,
2013-03-18 23:53:00,36.4,35.4,30.00,SW,224,0.0,2.0,96,0.00,,,0.77,Wunderground v.1.15,2013-03-19 04:53:00,
2013-03-18 23:58:00,36.0,35.0,30.01,SW,225,1.0,2.0,96,0.00,,,0.77,Wunderground v.1.15,2013-03-19 04:58:00,